Regional Weather Roundup
Issued by NWS Grand Forks, ND

Home | Current Version | Previous Version | Graphics & Text | Print | Product List | Glossary On
Versions: 1 2 3 4 5 6 7 8 9 10 11 12 13 14 15 16 17 18 19 20 21 22 23 24 25 26 27 28 29 30 31 32 33 34 35 36 37 38 39 40 41 42 43 44 45 46 47 48 49 50
000
ASUS43 KFGF 151510
RWRFGF
PRAIRIE TO PINES  WEATHER ROUNDUP
NATIONAL WEATHER SERVICE EASTERN NORTH DAKOTA/GRAND FORKS ND
900 AM CST SUN JAN 15 2017

 **SATELLITE DATA USED TO AUGMENT SKY COVER AT AUTOMATED STATIONS**
 *****  WEATHER ACROSS EASTERN NORTH DAKOTA  *****

CITY           SKY/WX    TMP DP  RH WIND       PRES   REMARKS
GRAND FORKS    FAIR       1  -5  75 S9        30.12F WCI -14
GRAND FRKS AFB FAIR       7  -2  66 SW9       30.11R WCI  -6
DEVILS LAKE    FAIR       6  -1  73 SW7       30.07S WCI  -6
FARGO          FAIR       8   2  76 S8        30.19F WCI  -4
WAHPETON ARPT  FAIR       3  -2  78 SE7       30.23S WCI  -9
$$

 ***** WEATHER ACROSS CENTRAL AND WESTERN NORTH DAKOTA  *****

CITY           SKY/WX    TMP DP  RH WIND       PRES   REMARKS
BISMARCK       FAIR      -9 -14  78 NE5       30.14F HAZE    WCI -20
MINOT          FAIR      14   4  64 SW17      30.03R WCI  -3
JAMESTOWN      FAIR       4  -1  80 S9        30.11S WCI -10
MINOT AFB      NOT AVBL
GARRISON         N/A     -3  -8  79 SW6       30.07S WCI -15
WILLISTON      FAIR       1  -4  79 S5        30.07F WCI  -9
DICKINSON      FAIR      20   5  52 SW18      30.06S WCI   5
HETTINGER      FAIR       0  -4  83 CALM      30.12F
$$

 *****  OTHER AIRPORT OBSERVATIONS IN OUR AREA  *****

CITY           SKY/WX    TMP DP  RH WIND       PRES   REMARKS
WALHALLA       NOT AVBL
GRAFTON AIRPOR FAIR       0  -4  85 S10       30.11S WCI -17
VALLEY CITY AR FAIR       5   1  85 S7        30.15R WCI  -7
CANDO          NOT AVBL
CAVALIER APRT    N/A     10   1  67 SW6       30.06S WCI   1
GWINNER        FAIR      12  10  92 SW14      30.18S WCI  -3
SHEYENNE NWR     N/A     14   7  72 SW8       29.95S WCI   3
ROLLA            N/A    N/A N/A N/A MISG        N/A
 ***** THE ABOVE OBSERVATIONS ARE NON NWS ARE NOT QUALITY
       CONTROLLED AND MAY MIS-REPORT RAIN FOR SNOW...
$$

  *****  WEATHER ACROSS NORTHERN MINNESOTA  *****

CITY           SKY/WX    TMP DP  RH WIND       PRES   REMARKS
FLAG ISLAND    FAIR       0  -4  85 S8        30.04F WCI -15
WARROAD        FAIR       9   1  72 SW13G18   30.05F WCI  -7
ROSEAU         FAIR       5   0  78 S10       30.07F WCI -10
HALLOCK        FAIR       1  -2  85 S15       30.08F WCI -18
THF RVR FALLS  FAIR       8   3  80 SW17      30.12S WCI -10
BAUDETTE       FAIR       5   0  79 SW9       30.07F WCI  -9
WASKISH        FAIR      10   3  72 CALM      30.11R
CROOKSTON      FAIR       5   0  78 S14       30.16S WCI -12
GREENBUSH NDAW   N/A      3   1  92 S14         N/A  WCI -15
$$
  *****  WEATHER ACROSS CENTRAL AND WEST MINNESOTA  *****

CITY           SKY/WX    TMP DP  RH WIND       PRES   REMARKS
FOSSTON        FLURRIES  10   1  67 S17       30.14R WCI  -7
BEMIDJI        FAIR      11   4  71 SW6       30.11F WCI   2
PARK RAPIDS    FAIR       0  -7  72 S9        30.17F WCI -15
ELBOW LAKE     FAIR       6   2  82 E10       30.24S FOG     WCI  -8
WADENA         FAIR      -6  -9  84 CALM      30.20S
DETROIT LAKES  FAIR       7   3  85 S8        30.19F WCI  -6
MOORHEAD       FAIR       3  -2  78 S17       30.20S WCI -17
FERGUS FALLS   FAIR       7   1  78 S8        30.28S WCI  -6
MORRIS MN      FAIR       3   0  85 SE12      30.23F WCI -13
STAPLES        FAIR       1  -2  85 S5        30.21S WCI  -8
$$
  *****  WEATHER ELSEWHERE ACROSS MINNESOTA  *****

CITY           SKY/WX    TMP DP  RH WIND       PRES   REMARKS
DULUTH         FAIR      13   6  74 SW12      30.20S WCI  -1
INTRNTL FALLS  FAIR       8   3  80 SW9       30.10F WCI  -5
ELY            FAIR      -4  -8  84 CALM      30.16F
CLOQUET        FAIR       7   1  78 SW10      30.22S WCI  -8
WHEATON        FAIR      10   5  79 SE9       30.25S WCI  -2
BRAINERD       FAIR       2  -1  88 S6        30.22F WCI  -9
HIBBING        FAIR     -16 -19  87 CALM      30.19S
ALEXANDRIA     FAIR      12   5  73 SW9       30.23F WCI   0
SAINT CLOUD    FAIR      -1  -4  87 SE7       30.30S WCI -14
MINNEAPOLIS    FAIR       5   2  87 CALM      30.35S
$$

  *****  WEATHER ACROSS SOUTH DAKOTA  *****

CITY           SKY/WX    TMP DP  RH WIND       PRES   REMARKS
SIOUX FALLS    FAIR       8   5  87 N3        30.29R
BROOKINGS      FAIR       9   6  88 SE8       30.26R WCI  -3
WATERTOWN      FAIR       6   3  87 S8        30.23R WCI  -7
HURON          FAIR       9   7  92 S3        30.26R
SISSETON         N/A     25  18  74 SW16      30.19F WCI  12
ABERDEEN       FAIR      -4  -9  79 S7        30.23S WCI -18
MITCHELL       FAIR      12   9  87 SE7       30.28R WCI   1
PIERRE         FAIR       2  -2  83 W10       30.22R WCI -14
MOBRIDGE       FAIR      -2  -9  72 SE7       30.16R WCI -15
RAPID CITY     FAIR      12  -1  56 CALM      30.13R
$$

  *****  SOME WEATHER IN NEARBY STATES *****

CITY           SKY/WX    TMP DP  RH WIND       PRES   REMARKS
GLASGOW MT     FAIR      -1  -5  82 S9        30.04S WCI -16
GREAT FALLS MT FAIR      25   9  50 SW23      30.01F WCI  10
CHEYENNE WY    FAIR      21  17  84 W5        30.08S WCI  15
SCOTTSBLUFF NE FAIR      16  13  88 W6        30.14F WCI   7
OMAHA NE       CLOUDY    31  17  56 CALM      30.35S
DES MOINES IA  CLOUDY    28  17  63 SE5       30.37F WCI  23
DAVENPORT IA   PTSUNNY   25  14  63 SE5       30.42S WCI  19
CHICAGO IL     PTSUNNY   24  17  74 CALM      30.42R
EAU CLAIRE WI  FAIR      -6  -9  86 CALM      30.37R FOG
LA CROSSE WI   FAIR      15   2  56 SE5       30.43R WCI   8
$$

  *****  SOME NATIONAL WEATHER *****

CITY           SKY/WX    TMP DP  RH WIND       PRES   REMARKS
LA GUARDIA NY  FAIR      35  22  58 NW9       30.38R
RALEIGH NC     CLOUDY    50  41  71 NE8       30.36R
ATLANTA GA     PTSUNNY   61  53  75 NW6       30.34R
NEW ORLEANS LA FAIR      64  62  93 E8        30.27S
OKLAHOMA CITY  DRZL/FOG  33  33 100 NE8       30.21S VSB 1/4
ALBUQUERQUE NM CLOUDY    40  40 100 NW12      29.93R
SALT LAKE CITY CLOUDY    27  24  89 N5        30.16S FOG     WCI  22
LOS ANGELES CA MOCLDY    54  50  86 E6        30.04R
BOISE ID       CLOUDY    10   7  87 NW6       30.38F FOG     WCI   0
SEATTLE WA     FAIR      28  25  88 SE3       30.28S
$$

*** WEATHER ACROSS MANITOBA...SASKATCHEWAN AND ONTARIO ***
                ***ONTARIO***

CITY           SKY/WX    TMP DP  RH WIND       PRES   REMARKS
GERALDTON      MOCLDY    10   7  85 SW9       30.08F WCI  -2
THUNDER BAY    PTCLDY    -4  -8  84 W3        30.20F
SIOUX LOOKOUT  MOCLDY    10   5  79 S12G20    29.97F WCI  -4
TORONTO        PTSUNNY   28  21  74 W8        30.41R WCI  20
BIG TROUT LK   CLOUDY    10   9  92 SW3       29.69F
PICKLE LAKE    MOCLDY    14   9  79 SW12G22   29.84F WCI   0
DRYDEN         MOCLDY     7   3  85 SW10      29.99S WCI  -8
KENORA         MOCLDY     5   0  78 S12G17    29.99F WCI -11
$$
                *** MANITOBA***

CITY           SKY/WX    TMP DP  RH WIND       PRES   REMARKS
BRANDON        PTCLDY     1  -4  78 W12       29.98S WCI -15
DAUPHIN        PTCLDY    27  12  54 W15       29.86R WCI  15
ISLAND LAKE    MOCLDY    16  10  79 SW8       29.69F WCI   5
PILOT MOUND      N/A      3  -2  78 SW10        N/A  WCI -12
THE PAS        MOCLDY    18  10  73 S8        29.65F WCI   7
THOMPSON       MOCLDY     9   5  85 S3        29.57S
WINNIPEG       PTCLDY     5   0  78 S14       29.99F WCI -12
LYNN LAKE      CLOUDY    19  18  93 SW7       29.46F WCI  10
CHURCHILL      LGT SNOW  -2  -6  84 S9        29.58F WCI -18
GILLAM         CLOUDY     5   1  85 S6        29.60F WCI  -6
$$
                ***SASKATCHEWAN***

CITY           SKY/WX    TMP DP  RH WIND       PRES   REMARKS
ESTEVAN        MOCLDY     3  -2  78 SW13      29.99S WCI -14
KINDERSLEY     MOCLDY     9   5  85 SW10      29.85S WCI  -6
LLOYDMINSTER   PTCLDY    27  18  69 W14       29.77F WCI  15
PRINCE ALBERT  MOCLDY    18  10  73 SW3       29.76S
REGINA         MOCLDY     3   0  85 SE8       29.93S WCI -10
YORKTON        CLEAR     14   9  79 S6        29.86S WCI   5
N. BATTLEFORD  CLEAR     18  10  73 S6        29.83S WCI   9
LA RONGE       MOCLDY    32  23  69 W12G17    29.60S WCI  23
SASKATOON      MOCLDY    18  12  79 SW13      29.84S WCI   4
SWIFT CURRENT  CLEAR     16   9  73 SW20      29.87F WCI  -1
$$
NOTE: THESE ARE AUTOMATED STATIONS WITH LIMITED QUALITY CONTROL
      "FAIR" INDICATES FEW OR NO CLOUDS BELOW 12,000 FEET WITH NO
      SIGNIFICANT WEATHER AND/OR OBSTRUCTIONS TO VISIBILITY.
      SKY/WX - SKY CONDITION AND SIGNIFICANT WEATHER.
      TMP - AIR TEMPERATURE.    DP   - DEWPOINT TEMPERATURE.
      RH  - RELATIVE HUMIDITY.  PRES - PRESSURE.
      HX  - HEAT INDEX.         WCI  - WIND CHILL INDEX.
$




USA.gov is the U.S. government's official web portal to all federal, state and local government web resources and services.